| time (UTC) | temp F | wind direction | speed knots | gust knots | rain 1hr in | rain 24hr in | rain mn in | humidity % | barometer mb |
| 20260905184512 | 95 | 133 | 2.6 | 10.4 | 0.00 | 0.00 | 0.00 | 43 | 1010.8 |
| 20260905183022 | 94 | 163 | 1.7 | 6.1 | 0.00 | 0.00 | 0.00 | 46 | 1011.1 |
| 20260905181551 | 93 | 162 | 2.6 | 8.7 | 0.00 | 0.00 | 0.00 | 47 | 1011.3 |
| 20260905180020 | 94 | 140 | 2.6 | 7.8 | 0.00 | 0.00 | 0.00 | 48 | 1011.5 |
| 20260905174537 | 94 | 160 | 0.9 | 7.8 | 0.00 | 0.00 | 0.00 | 49 | 1011.7 |
| 20260905173056 | 93 | 183 | 0.9 | 7.8 | 0.00 | 0.00 | 0.00 | 52 | 1012.0 |
| 20260905171513 | 92 | 145 | 4.3 | 7.0 | 0.00 | 0.00 | 0.00 | 53 | 1012.2 |
| 20260905170027 | 91 | 135 | 3.5 | 7.0 | 0.00 | 0.00 | 0.00 | 57 | 1012.4 |
| 20260905164546 | 89 | 171 | 3.5 | 8.7 | 0.00 | 0.00 | 0.00 | 59 | 1012.5 |
| 20260905163057 | 89 | 163 | 4.3 | 8.7 | 0.00 | 0.00 | 0.00 | 61 | 1012.6 |
| 20260905161513 | 90 | 148 | 1.7 | 7.8 | 0.00 | 0.00 | 0.00 | 66 | 1012.6 |
| 20260905160023 | 87 | 141 | 3.5 | 6.1 | 0.00 | 0.00 | 0.00 | 69 | 1012.6 |
| 20260905154617 | 87 | 158 | 2.6 | 5.2 | 0.00 | 0.00 | 0.00 | 70 | 1012.7 |
| 20260905153022 | 85 | 160 | 3.5 | 7.0 | 0.00 | 0.00 | 0.00 | 75 | 1012.6 |
| 20260905151533 | 83 | 170 | 2.6 | 7.0 | 0.00 | 0.00 | 0.00 | 79 | 1012.5 |
| 20260905150107 | 83 | 145 | 2.6 | 7.0 | 0.00 | 0.00 | 0.00 | 79 | 1012.6 |
| 20260905144518 | 83 | 139 | 2.6 | 6.1 | 0.00 | 0.00 | 0.00 | 79 | 1012.5 |
| 20260905143038 | 84 | 158 | 3.5 | 7.0 | 0.00 | 0.00 | 0.00 | 78 | 1012.4 |
| 20260905141546 | 83 | 153 | 3.5 | 7.0 | 0.00 | 0.00 | 0.00 | 81 | 1012.4 |
| 20260905140105 | 82 | 150 | 1.7 | 4.3 | 0.00 | 0.00 | 0.00 | 84 | 1012.3 |
| 20260905134517 | 80 | 157 | 0.9 | 3.5 | 0.00 | 0.00 | 0.00 | 88 | 1012.0 |
| 20260905133050 | 78 | 154 | 0.0 | 2.6 | 0.00 | 0.00 | 0.00 | 89 | 1011.9 |
| 20260905131530 | 77 | 154 | 0.0 | 0.9 | 0.00 | 0.00 | 0.00 | 89 | 1011.9 |
| 20260905130049 | 77 | 160 | 0.0 | 0.0 | 0.00 | 0.00 | 0.00 | 89 | 1011.8 |
| 20260905124602 | 76 | 129 | 0.0 | 0.0 | 0.00 | 0.00 | 0.00 | 89 | 1011.6 |
| 20260905123026 | 76 | 145 | 0.0 | 0.9 | 0.00 | 0.00 | 0.00 | 89 | 1011.4 |
| 20260905121538 | 75 | 161 | 0.0 | 0.0 | 0.00 | 0.00 | 0.00 | 89 | 1011.2 |
| 20260905120057 | 75 | 174 | 0.0 | 0.0 | 0.00 | 0.00 | 0.00 | 89 | 1011.2 |
| 20260905114514 | 76 | 171 | 0.0 | 0.0 | 0.00 | 0.00 | 0.00 | 89 | 1011.2 |
| 20260905113036 | 75 | 155 | 0.0 | 0.0 | 0.00 | 0.00 | 0.00 | 89 | 1011.2 |
| 20260905111658 | 76 | 155 | 0.0 | 0.0 | 0.00 | 0.00 | 0.00 | 88 | 1011.2 |
| 20260905110006 | 76 | 141 | 0.0 | 0.0 | 0.00 | 0.00 | 0.00 | 88 | 1011.1 |
| 20260905104526 | 77 | 147 | 0.0 | 0.0 | 0.00 | 0.00 | 0.00 | 88 | 1011.0 |
| 20260905103056 | 77 | 143 | 0.0 | 0.9 | 0.00 | 0.00 | 0.00 | 88 | 1010.9 |
| 20260905101507 | 78 | 174 | 0.0 | 0.0 | 0.00 | 0.00 | 0.00 | 88 | 1011.0 |
| 20260905100127 | 78 | 148 | 0.0 | 0.0 | 0.00 | 0.00 | 0.00 | 88 | 1010.9 |
| 20260905094511 | 78 | 158 | 0.0 | 0.9 | 0.00 | 0.00 | 0.00 | 88 | 1010.9 |
| 20260905093026 | 78 | 164 | 0.0 | 0.9 | 0.00 | 0.00 | 0.00 | 87 | 1011.0 |
| 20260905091549 | 78 | 143 | 0.0 | 0.9 | 0.00 | 0.00 | 0.00 | 87 | 1011.0 |
| 20260905090057 | 78 | 141 | 0.0 | 0.0 | 0.00 | 0.00 | 0.00 | 87 | 1010.8 |
| 20260905084509 | 78 | 139 | 0.0 | 0.9 | 0.00 | 0.00 | 0.00 | 87 | 1010.7 |
| 20260905083024 | 78 | 177 | 0.0 | 0.9 | 0.00 | 0.00 | 0.00 | 87 | 1010.9 |
| 20260905081553 | 78 | 143 | 0.0 | 0.9 | 0.00 | 0.00 | 0.00 | 86 | 1011.0 |
| 20260905080021 | 78 | 149 | 0.0 | 0.9 | 0.00 | 0.00 | 0.00 | 86 | 1011.0 |
| 20260905074548 | 78 | 165 | 0.0 | 0.9 | 0.00 | 0.00 | 0.00 | 86 | 1011.2 |
| 20260905073108 | 78 | 139 | 0.0 | 0.0 | 0.00 | 0.00 | 0.00 | 86 | 1011.3 |
| 20260905071508 | 78 | 153 | 0.0 | 0.0 | 0.00 | 0.00 | 0.00 | 85 | 1011.5 |
| 20260905070027 | 79 | 145 | 0.0 | 0.9 | 0.00 | 0.00 | 0.00 | 85 | 1011.6 |
| 20260905064544 | 79 | 143 | 0.0 | 2.6 | 0.00 | 0.00 | 0.00 | 84 | 1011.5 |
| 20260905063001 | 79 | 156 | 0.0 | 1.7 | 0.00 | 0.00 | 0.00 | 84 | 1011.4 |
| 20260905061521 | 79 | 153 | 0.0 | 0.9 | 0.00 | 0.00 | 0.00 | 83 | 1011.5 |
| 20260905060054 | 80 | 155 | 0.0 | 1.7 | 0.00 | 0.00 | 0.00 | 82 | 1011.7 |
| 20260905054502 | 80 | 187 | 0.9 | 2.6 | 0.00 | 0.00 | 0.00 | 82 | 1011.7 |
| 20260905053030 | 80 | 130 | 0.0 | 2.6 | 0.00 | 0.00 | 0.00 | 80 | 1011.6 |
| 20260905051505 | 81 | 139 | 1.7 | 3.5 | 0.00 | 0.00 | 0.00 | 80 | 1011.6 |
| 20260905050020 | 81 | 182 | 2.6 | 7.8 | 0.00 | 0.00 | 0.00 | 79 | 1011.7 |
| 20260905044535 | 82 | 147 | 4.3 | 9.6 | 0.00 | 0.00 | 0.00 | 78 | 1011.8 |
| 20260905043051 | 82 | 151 | 5.2 | 11.3 | 0.00 | 0.00 | 0.00 | 76 | 1011.9 |
| 20260905041506 | 83 | 162 | 4.3 | 6.1 | 0.00 | 0.00 | 0.00 | 74 | 1011.7 |
| 20260905040024 | 83 | 149 | 4.3 | 7.8 | 0.00 | 0.00 | 0.00 | 72 | 1011.6 |
| 20260905034535 | 84 | 174 | 3.5 | 7.8 | 0.00 | 0.00 | 0.00 | 69 | 1011.6 |
| 20260905033006 | 84 | 140 | 3.5 | 7.0 | 0.00 | 0.00 | 0.00 | 66 | 1011.4 |
| 20260905031542 | 83 | 181 | 2.6 | 6.1 | 0.00 | 0.00 | 0.00 | 65 | 1011.2 |
| 20260905030005 | 83 | 197 | 0.9 | 3.5 | 0.00 | 0.00 | 0.00 | 64 | 1011.1 |
| 20260905024536 | 84 | 154 | 0.0 | 3.5 | 0.00 | 0.00 | 0.00 | 64 | 1010.9 |
| 20260905023037 | 84 | 166 | 0.9 | 3.5 | 0.00 | 0.00 | 0.00 | 63 | 1010.8 |
| 20260905021550 | 85 | 168 | 0.9 | 4.3 | 0.00 | 0.00 | 0.00 | 63 | 1010.3 |
| 20260905020005 | 85 | 167 | 0.9 | 5.2 | 0.00 | 0.00 | 0.00 | 63 | 1010.3 |
| 20260905014522 | 85 | 160 | 0.9 | 3.5 | 0.00 | 0.00 | 0.00 | 63 | 1010.2 |
| 20260905013054 | 86 | 159 | 1.7 | 4.3 | 0.00 | 0.00 | 0.00 | 62 | 1010.0 |
| 20260905011607 | 86 | 154 | 1.7 | 5.2 | 0.00 | 0.00 | 0.00 | 61 | 1009.8 |
| 20260905010010 | 87 | 148 | 2.6 | 6.1 | 0.00 | 0.00 | 0.00 | 59 | 1009.6 |
| 20260905004540 | 88 | 158 | 1.7 | 6.1 | 0.00 | 0.00 | 0.00 | 57 | 1009.6 |
| 20260905003013 | 89 | 159 | 2.6 | 9.6 | 0.00 | 0.00 | 0.00 | 53 | 1009.5 |
| 20260905001525 | 90 | 159 | 2.6 | 6.1 | 0.00 | 0.00 | 0.00 | 52 | 1009.2 |
| 20260905000045 | 91 | 171 | 2.6 | 4.3 | 0.00 | 0.00 | 0.00 | 51 | 1009.0 |
| 20260904234552 | 91 | 131 | 1.7 | 5.2 | 0.00 | 0.00 | 0.00 | 51 | 1009.0 |
| 20260904233021 | 91 | 156 | 3.5 | 7.8 | 0.00 | 0.00 | 0.00 | 53 | 1008.8 |
| 20260904231536 | 91 | 163 | 2.6 | 7.8 | 0.00 | 0.00 | 0.00 | 53 | 1009.0 |
| 20260904230108 | 92 | 167 | 2.6 | 7.8 | 0.00 | 0.00 | 0.00 | 53 | 1009.2 |
| 20260904224510 | 92 | 152 | 3.5 | 7.8 | 0.00 | 0.00 | 0.00 | 53 | 1009.1 |
| 20260904223029 | 91 | 157 | 2.6 | 6.1 | 0.00 | 0.00 | 0.00 | 57 | 1009.3 |
| 20260904221615 | 89 | 162 | 2.6 | 5.2 | 0.00 | 0.00 | 0.00 | 59 | 1009.5 |
| 20260904220022 | 89 | 164 | 2.6 | 6.1 | 0.00 | 0.00 | 0.00 | 59 | 1009.8 |
| 20260904214548 | 89 | 151 | 1.7 | 5.2 | 0.00 | 0.00 | 0.00 | 59 | 1009.9 |
| 20260904213100 | 90 | 146 | 1.7 | 5.2 | 0.00 | 0.00 | 0.00 | 56 | 1010.0 |
| 20260904211510 | 90 | 129 | 1.7 | 5.2 | 0.00 | 0.00 | 0.00 | 54 | 1010.1 |
| 20260904210030 | 90 | 139 | 1.7 | 5.2 | 0.00 | 0.00 | 0.00 | 54 | 1010.3 |
| 20260904204546 | 91 | 159 | 1.7 | 5.2 | 0.00 | 0.00 | 0.00 | 53 | 1010.6 |
| 20260904203031 | 91 | 153 | 2.6 | 5.2 | 0.00 | 0.00 | 0.00 | 53 | 1010.6 |
| 20260904201556 | 92 | 146 | 1.7 | 7.0 | 0.00 | 0.00 | 0.00 | 51 | 1010.8 |
| 20260904200026 | 91 | 153 | 2.6 | 7.0 | 0.00 | 0.00 | 0.00 | 53 | 1010.9 |
| 20260904194532 | 91 | 160 | 1.7 | 7.0 | 0.00 | 0.00 | 0.00 | 55 | 1011.1 |
| 20260904193004 | 90 | 140 | 1.7 | 5.2 | 0.00 | 0.00 | 0.00 | 56 | 1011.2 |
| 20260904191520 | 90 | 146 | 2.6 | 6.1 | 0.00 | 0.00 | 0.00 | 57 | 1011.3 |
| 20260904190033 | 90 | 148 | 1.7 | 5.2 | 0.00 | 0.00 | 0.00 | 60 | 1011.6 |